QPF
0.01 0.02 0.02 0.03 0.04 0.05 0.07 0.08 0.06 0.04 0.04 0.04 0.05 0.06 0.06 0.05 0.06 0.04 0.05 0.04 0.03 0.02 0.02 0.01 0.01 0.01 0.01 0.01 0.02 0.04 0.09 0.11 0.13 0.11 0.08 0.06 0.05 0.03
0.02 0.02 0.02 0.02 0.03 0.03 0.04 0.06 0.08 0.08 0.05 0.04 0.05 0.06 0.07 0.06 0.07 0.06 0.05 0.05 0.03 0.02 0.01 0.01 0.01 0.01 0.01 0.01 0.02 0.03 0.07 0.10 0.13 0.12 0.09 0.06 0.05 0.03
0.01 0.01 0.01 0.01 0.02 0.01 0.01 0.02 0.04 0.05 0.04 0.03 0.04 0.04 0.06 0.08 0.09 0.08 0.07 0.06 0.05 0.04 0.02 0.02 0.02 0.02 0.02 0.03 0.04 0.06 0.09 0.12 0.15 0.15 0.13 0.09 0.06 0.04
0.01 0.01 0.01 0.01 0.01 0.00 0.01 0.01 0.01 0.01 0.02 0.02 0.03 0.04 0.06 0.08 0.08 0.08 0.06 0.06 0.07 0.06 0.04 0.03 0.04 0.03 0.04 0.05 0.07 0.09 0.12 0.16 0.19 0.19 0.16 0.11 0.06 0.04
0.00 0.00 0.01 0.01 0.01 0.01 0.00 0.00 0.00 0.00 0.01 0.02 0.03 0.05 0.08 0.07 0.07 0.07 0.06 0.08 0.07 0.06 0.05 0.04 0.05 0.06 0.06 0.07 0.09 0.13 0.15 0.18 0.20 0.20 0.18 0.14 0.09 0.06
0.00 0.00 0.00 0.00 0.00 0.00 0.00 0.00 0.00 0.00 0.01 0.02 0.03 0.05 0.06 0.06 0.05 0.06 0.07 0.09 0.09 0.06 0.05 0.04 0.04 0.07 0.08 0.09 0.11 0.15 0.20 0.22 0.23 0.22 0.21 0.17 0.12 0.08
0.00 0.00 0.00 0.00 0.00 0.00 0.00 0.00 0.00 0.00 0.00 0.01 0.02 0.02 0.02 0.02 0.03 0.04 0.06 0.11 0.13 0.09 0.06 0.05 0.05 0.05 0.06 0.06 0.08 0.12 0.18 0.23 0.23 0.22 0.21 0.19 0.14 0.09
0.00 0.00 0.00 0.00 0.00 0.00 0.00 0.00 0.00 0.00 0.00 0.01 0.01 0.01 0.01 0.01 0.01 0.02 0.05 0.08 0.11 0.11 0.09 0.08 0.05 0.05 0.04 0.04 0.05 0.06 0.10 0.17 0.24 0.24 0.20 0.16 0.12 0.07
0.00 0.00 0.00 0.00 0.00 0.00 0.00 0.00 0.00 0.00 0.00 0.01 0.02 0.01 0.01 0.01 0.01 0.02 0.04 0.08 0.12 0.15 0.15 0.16 0.13 0.10 0.08 0.06 0.06 0.05 0.05 0.08 0.14 0.18 0.16 0.12 0.08 0.05
0.00 0.00 0.00 0.00 0.00 0.00 0.00 0.00 0.00 0.00 0.00 0.00 0.01 0.01 0.00 0.00 0.01 0.02 0.03 0.07 0.14 0.16 0.16 0.20 0.20 0.20 0.20 0.18 0.14 0.09 0.05 0.03 0.04 0.05 0.06 0.06 0.04 0.02
0.00 0.00 0.00 0.00 0.00 0.00 0.00 0.00 0.00 0.00 0.00 0.00 0.00 0.00 0.00 0.00 0.00 0.01 0.03 0.05 0.12 0.17 0.20 0.24 0.27 0.28 0.31 0.33 0.29 0.24 0.16 0.10 0.07 0.05 0.04 0.03 0.02 0.01
0.00 0.00 0.00 0.00 0.00 0.00 0.00 0.00 0.00 0.00 0.00 0.01 0.01 0.01 0.01 0.00 0.00 0.01 0.02 0.05 0.09 0.14 0.19 0.25 0.33 0.37 0.44 0.46 0.43 0.40 0.32 0.23 0.16 0.11 0.08 0.06 0.04 0.02
0.00 0.00 0.00 0.00 0.00 0.00 0.00 0.00 0.00 0.00 0.00 0.00 0.00 0.00 0.00 0.00 0.00 0.01 0.02 0.03 0.05 0.08 0.11 0.16 0.25 0.33 0.41 0.49 0.53 0.54 0.53 0.45 0.33 0.24 0.16 0.11 0.09 0.06
0.00 0.00 0.00 0.00 0.00 0.00 0.00 0.00 0.00 0.00 0.00 0.00 0.00 0.00 0.00 0.00 0.00 0.01 0.02 0.03 0.04 0.05 0.06 0.10 0.15 0.23 0.31 0.37 0.43 0.47 0.49 0.52 0.47 0.40 0.33 0.26 0.17 0.13
0.00 0.00 0.00 0.00 0.00 0.00 0.00 0.00 0.00 0.00 0.00 0.00 0.00 0.00 0.00 0.00 0.01 0.01 0.02 0.02 0.03 0.03 0.02 0.04 0.08 0.12 0.15 0.22 0.29 0.36 0.40 0.42 0.44 0.44 0.42 0.38 0.29 0.22
0.00 0.00 0.00 0.00 0.00 0.00 0.00 0.00 0.00 0.00 0.00 0.00 0.00 0.00 0.00 0.00 0.01 0.01 0.01 0.02 0.03 0.04 0.03 0.03 0.04 0.07 0.10 0.12 0.17 0.22 0.28 0.32 0.33 0.36 0.39 0.38 0.34 0.31
0.00 0.00 0.00 0.00 0.00 0.00 0.00 0.00 0.00 0.00 0.00 0.00 0.00 0.00 0.00 0.00 0.01 0.01 0.02 0.02 0.02 0.03 0.04 0.05 0.05 0.06 0.06 0.07 0.12 0.16 0.19 0.22 0.22 0.23 0.26 0.28 0.28 0.27
0.00 0.00 0.00 0.00 0.00 0.00 0.00 0.00 0.00 0.00 0.00 0.00 0.00 0.00 0.00 0.00 0.01 0.01 0.02 0.03 0.04 0.04 0.04 0.05 0.06 0.08 0.10 0.07 0.05 0.09 0.13 0.13 0.13 0.15 0.16 0.16 0.15 0.14
0.00 0.00 0.00 0.00 0.00 0.00 0.00 0.00 0.00 0.00 0.00 0.00 0.00 0.00 0.00 0.00 0.01 0.01 0.01 0.02 0.03 0.04 0.04 0.05 0.05 0.06 0.09 0.10 0.09 0.06 0.06 0.08 0.09 0.11 0.12 0.12 0.12 0.10
0.00 0.00 0.00 0.00 0.00 0.00 0.00 0.00 0.00 0.00 0.00 0.00 0.00 0.00 0.00 0.00 0.01 0.01 0.01 0.01 0.02 0.03 0.03 0.03 0.03 0.03 0.05 0.06 0.07 0.08 0.04 0.05 0.07 0.09 0.08 0.07 0.06 0.05
0.00 0.00 0.00 0.00 0.00 0.00 0.00 0.00 0.00 0.00 0.00 0.00 0.00 0.00 0.00 0.00 0.00 0.01 0.01 0.00 0.00 0.01 0.01 0.01 0.02 0.02 0.05 0.08 0.10 0.10 0.07 0.04 0.05 0.06 0.06 0.07 0.08 0.08
0.00 0.00 0.00 0.00 0.00 0.00 0.00 0.00 0.00 0.00 0.00 0.00 0.00 0.00 0.00 0.00 0.00 0.00 0.00 0.00 0.00 0.01 0.01 0.01 0.01 0.02 0.04 0.06 0.08 0.09 0.08 0.08 0.06 0.05 0.05 0.05 0.06 0.08
0.00 0.00 0.00 0.00 0.00 0.00 0.00 0.00 0.00 0.00 0.00 0.00 0.00 0.00 0.00 0.00 0.00 0.00 0.00 0.00 0.00 0.00 0.00 0.00 0.01 0.02 0.02 0.03 0.06 0.07 0.08 0.09 0.10 0.10 0.09 0.06 0.03 0.02
MSLP
1011.27 1011.53 1011.76 1011.91 1011.97 1011.91 1011.74 1011.48 1011.15 1010.78 1010.40 1010.03 1009.71 1009.44 1009.24 1009.11 1009.07 1009.10 1009.19 1009.32 1009.45 1009.54 1009.58 1009.52 1009.36 1009.10 1008.77 1008.42 1008.11 1007.89 1007.83 1007.97 1008.34 1008.92 1009.69 1010.61 1011.60 1012.61
1011.38 1011.60 1011.79 1011.90 1011.93 1011.86 1011.68 1011.42 1011.09 1010.72 1010.34 1009.96 1009.62 1009.32 1009.09 1008.93 1008.84 1008.82 1008.85 1008.92 1008.98 1009.01 1008.98 1008.86 1008.64 1008.33 1007.95 1007.57 1007.23 1006.99 1006.93 1007.07 1007.45 1008.05 1008.85 1009.81 1010.85 1011.92
1011.57 1011.73 1011.86 1011.93 1011.92 1011.82 1011.63 1011.36 1011.04 1010.68 1010.30 1009.93 1009.58 1009.26 1009.00 1008.80 1008.65 1008.56 1008.52 1008.50 1008.48 1008.43 1008.33 1008.14 1007.88 1007.53 1007.15 1006.76 1006.42 1006.20 1006.16 1006.32 1006.72 1007.35 1008.18 1009.16 1010.24 1011.33
1011.84 1011.95 1012.03 1012.04 1011.99 1011.86 1011.66 1011.39 1011.08 1010.73 1010.36 1009.99 1009.64 1009.31 1009.02 1008.77 1008.56 1008.40 1008.27 1008.16 1008.05 1007.92 1007.75 1007.52 1007.23 1006.88 1006.50 1006.14 1005.84 1005.66 1005.66 1005.86 1006.29 1006.94 1007.78 1008.77 1009.85 1010.95
1012.21 1012.29 1012.32 1012.29 1012.20 1012.05 1011.83 1011.56 1011.25 1010.91 1010.56 1010.20 1009.85 1009.50 1009.18 1008.88 1008.61 1008.37 1008.16 1007.97 1007.78 1007.59 1007.37 1007.11 1006.81 1006.48 1006.15 1005.84 1005.60 1005.49 1005.54 1005.78 1006.24 1006.89 1007.73 1008.71 1009.75 1010.82
1012.68 1012.73 1012.73 1012.68 1012.56 1012.38 1012.15 1011.88 1011.58 1011.25 1010.91 1010.55 1010.19 1009.84 1009.48 1009.14 1008.82 1008.52 1008.24 1007.97 1007.73 1007.49 1007.24 1006.98 1006.70 1006.42 1006.14 1005.91 1005.75 1005.70 1005.81 1006.10 1006.57 1007.22 1008.03 1008.95 1009.95 1010.95
1013.21 1013.25 1013.23 1013.16 1013.02 1012.83 1012.60 1012.32 1012.02 1011.70 1011.36 1011.01 1010.64 1010.27 1009.89 1009.52 1009.15 1008.80 1008.47 1008.16 1007.88 1007.62 1007.37 1007.13 1006.89 1006.67 1006.47 1006.32 1006.24 1006.27 1006.43 1006.74 1007.21 1007.83 1008.59 1009.44 1010.35 1011.26
1013.73 1013.76 1013.74 1013.66 1013.52 1013.32 1013.08 1012.81 1012.51 1012.18 1011.84 1011.49 1011.12 1010.73 1010.34 1009.94 1009.54 1009.16 1008.80 1008.48 1008.18 1007.92 1007.70 1007.49 1007.32 1007.16 1007.04 1006.97 1006.97 1007.05 1007.25 1007.57 1008.02 1008.59 1009.27 1010.03 1010.83 1011.63
1014.17 1014.21 1014.19 1014.11 1013.96 1013.77 1013.52 1013.25 1012.95 1012.62 1012.28 1011.92 1011.54 1011.15 1010.74 1010.33 1009.92 1009.53 1009.17 1008.84 1008.56 1008.32 1008.12 1007.97 1007.85 1007.76 1007.71 1007.71 1007.76 1007.88 1008.09 1008.40 1008.81 1009.32 1009.90 1010.55 1011.23 1011.90
1014.49 1014.53 1014.51 1014.42 1014.28 1014.09 1013.85 1013.57 1013.27 1012.95 1012.61 1012.25 1011.87 1011.47 1011.06 1010.65 1010.24 1009.85 1009.49 1009.18 1008.92 1008.71 1008.55 1008.44 1008.37 1008.33 1008.33 1008.37 1008.45 1008.59 1008.79 1009.06 1009.41 1009.83 1010.31 1010.84 1011.38 1011.93
1014.67 1014.70 1014.67 1014.59 1014.44 1014.25 1014.02 1013.75 1013.46 1013.15 1012.81 1012.45 1012.08 1011.68 1011.28 1010.87 1010.47 1010.09 1009.75 1009.45 1009.21 1009.02 1008.89 1008.81 1008.77 1008.77 1008.79 1008.85 1008.93 1009.05 1009.22 1009.44 1009.71 1010.03 1010.40 1010.81 1011.23 1011.65
1014.74 1014.75 1014.70 1014.61 1014.47 1014.28 1014.06 1013.81 1013.54 1013.24 1012.91 1012.57 1012.20 1011.82 1011.42 1011.02 1010.63 1010.26 1009.93 1009.64 1009.42 1009.24 1009.12 1009.05 1009.02 1009.02 1009.04 1009.08 1009.15 1009.23 1009.35 1009.49 1009.68 1009.91 1010.17 1010.45 1010.76 1011.07
1014.73 1014.71 1014.65 1014.55 1014.41 1014.23 1014.03 1013.80 1013.55 1013.28 1012.98 1012.66 1012.31 1011.94 1011.55 1011.16 1010.77 1010.41 1010.08 1009.79 1009.56 1009.38 1009.25 1009.17 1009.12 1009.10 1009.10 1009.11 1009.13 1009.16 1009.21 1009.28 1009.38 1009.51 1009.68 1009.86 1010.07 1010.28
1014.72 1014.67 1014.58 1014.47 1014.33 1014.17 1013.99 1013.80 1013.58 1013.35 1013.08 1012.79 1012.46 1012.11 1011.73 1011.34 1010.95 1010.58 1010.24 1009.94 1009.68 1009.48 1009.33 1009.22 1009.14 1009.08 1009.03 1008.99 1008.96 1008.93 1008.92 1008.92 1008.94 1008.99 1009.06 1009.16 1009.29 1009.44
1014.73 1014.65 1014.54 1014.41 1014.28 1014.14 1013.99 1013.84 1013.67 1013.48 1013.26 1013.00 1012.71 1012.37 1012.00 1011.61 1011.21 1010.82 1010.46 1010.13 1009.84 1009.60 1009.41 1009.25 1009.13 1009.02 1008.93 1008.84 1008.75 1008.67 1008.59 1008.53 1008.48 1008.46 1008.47 1008.51 1008.58 1008.68
1014.77 1014.66 1014.53 1014.40 1014.28 1014.16 1014.05 1013.95 1013.83 1013.70 1013.53 1013.31 1013.05 1012.73 1012.37 1011.98 1011.56 1011.15 1010.75 1010.39 1010.06 1009.78 1009.54 1009.34 1009.17 1009.01 1008.87 1008.74 1008.60 1008.47 1008.34 1008.23 1008.14 1008.07 1008.03 1008.03 1008.06 1008.13
1014.82 1014.68 1014.54 1014.41 1014.30 1014.21 1014.15 1014.10 1014.04 1013.96 1013.85 1013.68 1013.45 1013.16 1012.81 1012.41 1011.99 1011.55 1011.12 1010.72 1010.35 1010.03 1009.75 1009.50 1009.29 1009.09 1008.91 1008.74 1008.57 1008.40 1008.24 1008.10 1007.98 1007.88 1007.81 1007.79 1007.80 1007.85
1014.79 1014.64 1014.49 1014.37 1014.28 1014.23 1014.22 1014.22 1014.23 1014.22 1014.16 1014.04 1013.86 1013.59 1013.26 1012.87 1012.44 1011.99 1011.54 1011.11 1010.71 1010.35 1010.03 1009.75 1009.51 1009.28 1009.08 1008.88 1008.68 1008.49 1008.31 1008.15 1008.01 1007.90 1007.82 1007.78 1007.79 1007.84
1014.62 1014.46 1014.32 1014.21 1014.15 1014.15 1014.19 1014.26 1014.33 1014.38 1014.39 1014.33 1014.19 1013.97 1013.66 1013.29 1012.87 1012.42 1011.96 1011.52 1011.10 1010.72 1010.39 1010.08 1009.81 1009.57 1009.34 1009.12 1008.91 1008.71 1008.52 1008.35 1008.20 1008.08 1008.00 1007.96 1007.96 1008.01
1014.25 1014.10 1013.97 1013.89 1013.87 1013.91 1014.01 1014.14 1014.28 1014.41 1014.48 1014.49 1014.41 1014.23 1013.97 1013.63 1013.24 1012.81 1012.37 1011.93 1011.51 1011.13 1010.78 1010.47 1010.18 1009.92 1009.67 1009.44 1009.21 1009.00 1008.80 1008.62 1008.48 1008.36 1008.28 1008.24 1008.24 1008.28
1013.66 1013.52 1013.42 1013.38 1013.40 1013.50 1013.66 1013.86 1014.08 1014.27 1014.41 1014.49 1014.47 1014.36 1014.16 1013.88 1013.53 1013.14 1012.73 1012.32 1011.93 1011.55 1011.21 1010.89 1010.59 1010.31 1010.04 1009.79 1009.54 1009.32 1009.11 1008.93 1008.77 1008.66 1008.58 1008.54 1008.53 1008.57
1012.87 1012.76 1012.70 1012.70 1012.78 1012.95 1013.17 1013.44 1013.72 1013.99 1014.20 1014.35 1014.41 1014.37 1014.24 1014.02 1013.74 1013.42 1013.06 1012.70 1012.33 1011.98 1011.65 1011.32 1011.02 1010.72 1010.43 1010.15 1009.88 1009.63 1009.41 1009.21 1009.06 1008.94 1008.86 1008.81 1008.81 1008.83
1011.92 1011.86 1011.85 1011.91 1012.06 1012.29 1012.58 1012.92 1013.27 1013.60 1013.88 1014.10 1014.23 1014.27 1014.22 1014.09 1013.89 1013.64 1013.35 1013.05 1012.73 1012.41 1012.09 1011.77 1011.45 1011.13 1010.81 1010.50 1010.20 1009.93 1009.68 1009.48 1009.31 1009.19 1009.11 1009.07 1009.05 1009.06
Thickness
5696 5694 5693 5693 5692 5691 5691 5689 5687 5689 5692 5697 5695 5697 5695 5693 5690 5690 5690 5687 5686 5686 5687 5689 5691 5694 5698 5701 5705 5708 5710 5711 5712 5709 5705 5699 5693 5687
5685 5684 5683 5685 5683 5683 5683 5683 5681 5679 5681 5689 5688 5690 5688 5688 5685 5683 5683 5680 5679 5679 5679 5681 5684 5688 5692 5696 5701 5704 5706 5707 5707 5705 5701 5695 5689 5684
5675 5674 5672 5672 5674 5675 5675 5675 5675 5674 5673 5679 5682 5682 5680 5679 5680 5678 5676 5674 5674 5672 5672 5674 5677 5680 5685 5690 5695 5699 5702 5703 5702 5700 5696 5690 5685 5679
5664 5663 5662 5663 5661 5663 5663 5664 5665 5664 5664 5664 5669 5672 5672 5672 5673 5672 5671 5671 5669 5666 5666 5667 5669 5672 5677 5683 5687 5692 5696 5697 5697 5694 5690 5685 5679 5674
5653 5652 5651 5651 5650 5651 5651 5654 5656 5659 5657 5658 5660 5662 5663 5664 5665 5666 5667 5665 5665 5663 5660 5660 5661 5664 5668 5673 5679 5684 5688 5689 5689 5687 5683 5678 5673 5668
5641 5640 5639 5638 5637 5638 5640 5641 5644 5646 5648 5650 5651 5651 5652 5653 5655 5656 5658 5659 5659 5660 5656 5655 5655 5657 5659 5663 5668 5673 5677 5679 5680 5678 5674 5671 5666 5661
5629 5628 5625 5623 5621 5623 5627 5628 5631 5634 5638 5638 5638 5639 5638 5639 5640 5643 5646 5649 5651 5652 5651 5651 5651 5652 5653 5654 5657 5660 5663 5666 5667 5667 5664 5661 5657 5652
5618 5618 5617 5615 5613 5612 5611 5611 5612 5616 5619 5621 5623 5622 5622 5625 5628 5632 5635 5637 5639 5642 5642 5643 5644 5644 5646 5647 5647 5647 5649 5651 5652 5653 5652 5649 5646 5642
5608 5608 5611 5607 5607 5608 5606 5603 5602 5600 5599 5602 5606 5604 5608 5610 5613 5620 5622 5624 5625 5629 5631 5632 5634 5635 5636 5637 5636 5637 5637 5638 5639 5638 5637 5636 5634 5632
5600 5599 5599 5597 5595 5594 5599 5598 5598 5595 5592 5593 5591 5591 5593 5594 5598 5606 5611 5617 5618 5619 5620 5621 5624 5626 5627 5628 5627 5627 5627 5627 5627 5627 5626 5625 5624 5623
5593 5590 5590 5589 5582 5582 5588 5587 5586 5585 5582 5579 5577 5578 5578 5580 5584 5594 5599 5604 5606 5609 5610 5611 5613 5616 5618 5619 5619 5618 5618 5618 5618 5618 5617 5617 5616 5616
5586 5584 5576 5576 5573 5572 5577 5576 5573 5572 5573 5575 5572 5571 5573 5575 5576 5579 5584 5588 5592 5596 5598 5601 5604 5606 5608 5610 5611 5611 5610 5610 5610 5610 5610 5610 5610 5610
5586 5584 5575 5567 5565 5564 5564 5563 5559 5558 5564 5565 5565 5564 5564 5565 5567 5568 5570 5573 5577 5581 5586 5589 5593 5596 5597 5600 5603 5604 5604 5604 5604 5604 5605 5605 5606 5607
5578 5577 5568 5560 5558 5556 5556 5552 5551 5551 5557 5556 5554 5553 5552 5552 5554 5556 5558 5561 5563 5567 5571 5576 5581 5584 5588 5591 5594 5597 5598 5599 5600 5601 5602 5603 5603 5604
5569 5561 5558 5555 5552 5552 5547 5546 5547 5549 5547 5546 5544 5542 5542 5542 5543 5546 5550 5553 5556 5559 5563 5565 5569 5575 5579 5582 5585 5588 5591 5594 5596 5597 5599 5600 5602 5603
5564 5557 5552 5551 5549 5546 5545 5545 5544 5539 5536 5535 5534 5533 5534 5534 5535 5536 5539 5542 5546 5550 5552 5555 5559 5563 5568 5571 5576 5579 5582 5585 5588 5592 5594 5596 5597 5599
5560 5560 5559 5556 5553 5549 5545 5540 5537 5533 5530 5527 5526 5525 5525 5525 5525 5526 5526 5530 5533 5535 5539 5543 5549 5553 5556 5560 5564 5568 5571 5574 5578 5582 5585 5588 5590 5593
5553 5558 5555 5552 5549 5545 5541 5536 5531 5526 5522 5520 5518 5516 5515 5515 5515 5516 5517 5519 5520 5523 5526 5529 5534 5541 5544 5547 5546 5555 5559 5561 5566 5570 5575 5578 5581 5583
5551 5553 5550 5547 5544 5540 5535 5530 5525 5520 5514 5513 5510 5507 5506 5506 5505 5506 5506 5507 5508 5511 5514 5517 5520 5524 5529 5533 5536 5536 5544 5549 5554 5558 5563 5567 5571 5573
5551 5550 5547 5543 5539 5534 5530 5525 5520 5516 5510 5506 5503 5499 5497 5496 5496 5495 5496 5494 5496 5499 5502 5505 5507 5508 5512 5516 5522 5527 5528 5536 5542 5547 5551 5556 5560 5562
5550 5548 5545 5541 5536 5531 5526 5521 5516 5511 5504 5500 5497 5492 5490 5489 5487 5486 5486 5484 5484 5488 5490 5492 5493 5493 5501 5506 5511 5516 5519 5519 5524 5530 5537 5544 5549 5553
5548 5546 5543 5539 5534 5529 5523 5518 5513 5508 5501 5497 5492 5487 5484 5481 5480 5478 5478 5478 5478 5478 5479 5482 5484 5488 5492 5496 5499 5503 5507 5511 5513 5516 5520 5525 5532 5538
5547 5544 5542 5538 5533 5527 5522 5516 5509 5505 5499 5493 5488 5483 5478 5475 5472 5471 5470 5469 5468 5468 5470 5472 5474 5477 5480 5484 5488 5491 5494 5499 5503 5507 5511 5513 5516 5521